Overview Statistics Trail Chart Weather Telemetry Raw packets
 

This is the latest recevied weather packets stored in our database for station/object K1RFS. If no packets are shown the sender has not sent any weather packets the latest 10 day(s).

<< 95 96 97 98 99 100 101 >>
Time Temp. Humidity Pressure Rain* Wind** Luminosity Snow
1787985849 17.78° C 85% 1006.4 hPa 0 mm - 0 W/m² -
1787985543 17.78° C 84% 1006.3 hPa 0 mm - 0 W/m² -
1787985238 18.89° C 83% 1006.2 hPa 0 mm - 0 W/m² -
1787984937 18.89° C 80% 1006.1 hPa 0 mm - 0 W/m² -
1787984633 19.44° C 76% 1006.3 hPa 0 mm - 0 W/m² -
1787984328 19.44° C 74% 1006.3 hPa 0 mm - 0 W/m² -
1787984026 20° C 72% 1006.3 hPa 0 mm - 0 W/m² -
1787983722 20.56° C 67% 1006.2 hPa 0 mm - 0 W/m² -
1787983416 20.56° C 63% 1006.2 hPa 0 mm - 0 W/m² -
1787983112 20.56° C 60% 1005.8 hPa 0 mm - 0 W/m² -
1787982807 20.56° C 61% 1006 hPa 0 mm - 0 W/m² -
1787982507 21.11° C 58% 1006.3 hPa 0 mm - 0 W/m² -
1787982203 21.11° C 58% 1006 hPa 0 mm - 0 W/m² -
1787981899 21.11° C 56% 1006.3 hPa 0 mm - 0 W/m² -
1787981598 20.56° C 58% 1006.1 hPa 0 mm - 0 W/m² -
1787981293 20.56° C 60% 1005.7 hPa 0 mm - 0 W/m² -
1787980993 20.56° C 61% 1005.6 hPa 0 mm - 0 W/m² -
1787980691 21.11° C 59% 1005.4 hPa 0 mm - 0 W/m² -
1787980387 21.11° C 59% 1004.9 hPa 0 mm - 0 W/m² -
1787980082 21.11° C 59% 1005 hPa 0 mm - 0 W/m² -
1787979779 21.11° C 60% 1005 hPa 0 mm - 0 W/m² -
1787979477 21.11° C 59% 1005.2 hPa 0 mm - 0 W/m² -
1787979177 21.11° C 58% 1005.3 hPa 0 mm - 0 W/m² -
1787978875 21.11° C 56% 1005 hPa 0 mm - 0 W/m² -
1787978571 21.67° C 55% 1004.8 hPa 0 mm - 0 W/m² -

* Rain latest hour (hover to see other rain measurements)
** Current wind speed in m/s (hover to see current wind gust speed)